Location: Finkenwalde
(53.3770°N, 14.6418°E)
Time: 04:47:26
(UTC+00:00)

Cosmos 1408 - Pass Details

Date: 05 February 2023
Orbit: 433 x 464 km, 82.6° (Epoch: 24 March)

Event Time Altitude Azimuth Distance (km) Brightness Sun altitude
Rises 16:31:47 0° 179° (S) 2,419 6.3 -6.4°
Reaches altitude 10° 16:33:50 10° 175° (S) 1,561 5.3 -6.6°
Maximum altitude 16:37:10 56° 97° (E) 543 2.5 -7.1°
Drops below altitude 10° 16:40:34 10° 18° (NNE) 1,599 4.9 -7.6°
Sets 16:42:42 0° 15° (NNE) 2,487 5.9 -7.9°
